This is the latest recevied weather packets stored in our database for station/object KE4AMH. If no packets are shown the sender has not sent any weather packets the latest 10 day(s).
| Time | Temp. | Humidity | Pressure | Rain* | Wind** | Luminosity | Snow |
|---|---|---|---|---|---|---|---|
| 1778122838 | 18.33° C | 99% | 1012.8 hPa | 0 mm | - | 0 W/m² | - |
| 1778122535 | 18.33° C | 99% | 1012.9 hPa | 0 mm | - | 0 W/m² | - |
| 1778122233 | 18.33° C | 99% | 1013.4 hPa | 0 mm | - | 0 W/m² | - |
| 1778121930 | 18.33° C | 99% | 1013 hPa | 1.27 mm | - | 0 W/m² | - |
| 1778121627 | 18.33° C | 99% | 1013.2 hPa | 2.29 mm | - | 0 W/m² | - |
| 1778121322 | 18.33° C | 99% | 1013 hPa | 2.29 mm | - | 0 W/m² | - |
| 1778121021 | 18.33° C | 99% | 1013.1 hPa | 5.33 mm | - | 0 W/m² | - |
| 1778120717 | 18.33° C | 99% | 1012.7 hPa | 4.83 mm | - | 0 W/m² | - |
| 1778120412 | 18.33° C | 99% | 1013.5 hPa | 4.32 mm | - | 0 W/m² | - |
| 1778120109 | 18.33° C | 99% | 1013.1 hPa | 7.87 mm | - | 0 W/m² | - |
| 1778119805 | 18.33° C | 99% | 1013.6 hPa | 7.11 mm | - | 0 W/m² | - |
| 1778119503 | 18.33° C | 99% | 1013.8 hPa | 3.56 mm | - | 0 W/m² | - |
| 1778119199 | 18.33° C | 99% | 1013.7 hPa | 3.56 mm | - | 0 W/m² | - |
| 1778118898 | 18.33° C | 99% | 1013.8 hPa | 3.05 mm | - | 0 W/m² | - |
| 1778118595 | 18.33° C | 99% | 1013.5 hPa | 1.78 mm | - | 0 W/m² | - |
| 1778118291 | 18.33° C | 99% | 1013.3 hPa | 3.05 mm | - | 0 W/m² | - |
| 1778117987 | 18.33° C | 99% | 1013.1 hPa | 4.32 mm | - | 0 W/m² | - |
| 1778117684 | 18.33° C | 99% | 1013.9 hPa | 4.32 mm | - | 0 W/m² | - |
| 1778117381 | 18.33° C | 99% | 1014 hPa | 3.56 mm | - | 0 W/m² | - |
| 1778117078 | 18.33° C | 99% | 1013.5 hPa | 2.29 mm | - | 0 W/m² | - |
| 1778116774 | 18.33° C | 99% | 1014 hPa | 2.29 mm | - | 0 W/m² | - |
| 1778116472 | 18.33° C | 99% | 1013.8 hPa | 1.78 mm | - | 0 W/m² | - |
| 1778116166 | 18.33° C | 99% | 1013.7 hPa | 0 mm | - | 0 W/m² | - |
| 1778115861 | 18.33° C | 99% | 1013.9 hPa | 3.05 mm | - | 0 W/m² | - |
| 1778115559 | 18.33° C | 99% | 1013.9 hPa | 5.33 mm | - | 0 W/m² | - |
* Rain latest hour (hover to see other rain measurements)
** Current wind speed in m/s (hover to see current wind gust speed)